Time,TemperatureF,DewpointF,PressureIn,WindDirection,WindDirectionDegrees,WindSpeedMPH,WindSpeedGustMPH,Humidity,HourlyPrecipIn,Conditions,Clouds,dailyrainin,SoftwareType,DateUTC
2013-01-08 00:02:00,25.0,22.0,30.28,South,183,0.0,0.0,89,0.00,,,0.00,,2013-01-08 06:02:00,
2013-01-08 00:12:00,25.0,22.0,30.28,South,183,0.0,0.0,89,0.00,,,0.00,,2013-01-08 06:12:00,
2013-01-08 00:22:00,25.0,22.0,30.28,South,183,0.0,0.0,89,0.00,,,0.00,,2013-01-08 06:22:00,
2013-01-08 00:33:00,25.0,22.0,30.27,South,183,0.0,0.0,89,0.00,,,0.00,,2013-01-08 06:33:00,
2013-01-08 00:42:00,25.0,22.0,30.27,South,183,0.0,0.0,89,0.00,,,0.00,,2013-01-08 06:42:00,
2013-01-08 00:52:00,25.0,22.0,30.27,South,183,0.0,0.0,89,0.00,,,0.00,,2013-01-08 06:52:00,
2013-01-08 01:02:00,25.0,22.0,30.25,South,183,0.0,0.0,89,0.00,,,0.00,,2013-01-08 07:02:00,
2013-01-08 01:12:00,25.0,22.0,30.25,South,183,0.0,0.0,89,0.00,,,0.00,,2013-01-08 07:12:00,
2013-01-08 01:22:00,24.0,21.0,30.25,South,183,0.0,0.0,89,0.00,,,0.00,,2013-01-08 07:22:00,
2013-01-08 01:32:00,25.0,22.0,30.25,South,183,0.0,0.0,90,0.00,,,0.00,,2013-01-08 07:32:00,
2013-01-08 01:42:00,25.0,22.0,30.25,South,183,0.0,0.0,90,0.00,,,0.00,,2013-01-08 07:42:00,
2013-01-08 01:52:00,25.0,22.0,30.25,South,183,0.0,0.0,90,0.00,,,0.00,,2013-01-08 07:52:00,
2013-01-08 02:02:00,26.0,24.0,30.25,South,183,0.0,0.0,91,0.00,,,0.00,,2013-01-08 08:02:00,
2013-01-08 02:12:00,26.0,24.0,30.25,South,183,0.0,0.0,91,0.00,,,0.00,,2013-01-08 08:12:00,
2013-01-08 02:22:00,26.0,24.0,30.25,South,183,0.0,0.0,91,0.00,,,0.00,,2013-01-08 08:22:00,
2013-01-08 02:32:00,26.0,24.0,30.26,South,183,0.0,0.0,91,0.00,,,0.00,,2013-01-08 08:32:00,
2013-01-08 02:42:00,26.0,24.0,30.26,South,183,0.0,0.0,91,0.00,,,0.00,,2013-01-08 08:42:00,
2013-01-08 02:52:00,26.0,24.0,30.26,South,183,0.0,0.0,92,0.00,,,0.00,,2013-01-08 08:52:00,
2013-01-08 03:02:00,26.0,24.0,30.26,South,183,0.0,0.0,91,0.00,,,0.00,,2013-01-08 09:02:00,
2013-01-08 03:12:00,26.0,24.0,30.26,South,183,0.0,0.0,91,0.00,,,0.00,,2013-01-08 09:12:00,
2013-01-08 03:22:00,26.0,24.0,30.26,South,183,0.0,0.0,91,0.00,,,0.00,,2013-01-08 09:22:00,
2013-01-08 03:32:00,26.0,24.0,30.26,South,183,0.0,0.0,91,0.00,,,0.00,,2013-01-08 09:32:00,
2013-01-08 03:42:00,26.0,24.0,30.26,South,183,0.0,0.0,91,0.00,,,0.00,,2013-01-08 09:42:00,
2013-01-08 03:52:00,26.0,24.0,30.26,South,183,0.0,0.0,91,0.00,,,0.00,,2013-01-08 09:52:00,
2013-01-08 04:02:00,26.0,24.0,30.26,South,183,0.0,0.0,91,0.00,,,0.00,,2013-01-08 10:02:00,
2013-01-08 04:12:00,26.0,24.0,30.26,South,183,0.0,0.0,91,0.00,,,0.00,,2013-01-08 10:12:00,
2013-01-08 04:22:00,25.0,23.0,30.26,South,183,0.0,0.0,91,0.00,,,0.00,,2013-01-08 10:22:00,
2013-01-08 04:32:00,25.0,23.0,30.26,South,183,0.0,0.0,91,0.00,,,0.00,,2013-01-08 10:32:00,
2013-01-08 04:42:00,25.0,23.0,30.26,South,183,0.0,0.0,91,0.00,,,0.00,,2013-01-08 10:42:00,
2013-01-08 04:52:00,25.0,23.0,30.26,South,183,0.0,0.0,91,0.00,,,0.00,,2013-01-08 10:52:00,
2013-01-08 05:02:00,25.0,23.0,30.27,South,183,0.0,0.0,91,0.00,,,0.00,,2013-01-08 11:02:00,
2013-01-08 05:12:00,25.0,23.0,30.27,South,183,0.0,0.0,91,0.00,,,0.00,,2013-01-08 11:12:00,
2013-01-08 05:22:00,25.0,23.0,30.27,South,183,0.0,0.0,91,0.00,,,0.00,,2013-01-08 11:22:00,
2013-01-08 05:32:00,25.0,23.0,30.27,South,183,0.0,0.0,91,0.00,,,0.00,,2013-01-08 11:32:00,
2013-01-08 05:42:00,25.0,23.0,30.27,South,183,0.0,0.0,91,0.00,,,0.00,,2013-01-08 11:42:00,
2013-01-08 05:53:00,24.0,22.0,30.27,South,183,0.0,0.0,91,0.00,,,0.00,,2013-01-08 11:53:00,
2013-01-08 06:02:00,24.0,22.0,30.29,South,183,0.0,0.0,91,0.00,,,0.00,,2013-01-08 12:02:00,
2013-01-08 06:12:00,24.0,22.0,30.29,South,183,0.0,0.0,91,0.00,,,0.00,,2013-01-08 12:12:00,
2013-01-08 06:22:00,24.0,22.0,30.29,South,183,0.0,0.0,91,0.00,,,0.00,,2013-01-08 12:22:00,
2013-01-08 06:32:00,24.0,22.0,30.29,South,183,0.0,0.0,91,0.00,,,0.00,,2013-01-08 12:32:00,
2013-01-08 06:42:00,24.0,22.0,30.29,South,183,0.0,0.0,91,0.00,,,0.00,,2013-01-08 12:42:00,
2013-01-08 06:53:00,24.0,22.0,30.29,South,183,0.0,0.0,91,0.00,,,0.00,,2013-01-08 12:53:00,
2013-01-08 07:03:00,24.0,22.0,30.31,South,183,0.0,0.0,90,0.00,,,0.00,,2013-01-08 13:03:00,
2013-01-08 07:12:00,24.0,22.0,30.31,South,183,0.0,0.0,90,0.00,,,0.00,,2013-01-08 13:12:00,
2013-01-08 07:22:00,23.0,21.0,30.31,South,183,0.0,0.0,90,0.00,,,0.00,,2013-01-08 13:22:00,
2013-01-08 07:33:00,23.0,21.0,30.33,South,183,0.0,0.0,90,0.00,,,0.00,,2013-01-08 13:33:00,
2013-01-08 07:42:00,23.0,21.0,30.33,South,183,0.0,0.0,90,0.00,,,0.00,,2013-01-08 13:42:00,
2013-01-08 07:52:00,22.0,20.0,30.33,South,183,0.0,0.0,90,0.00,,,0.00,,2013-01-08 13:52:00,
2013-01-08 08:02:00,22.0,20.0,30.34,South,183,0.0,0.0,90,0.00,,,0.00,,2013-01-08 14:02:00,
2013-01-08 08:12:00,22.0,20.0,30.34,South,183,0.0,0.0,90,0.00,,,0.00,,2013-01-08 14:12:00,
2013-01-08 08:23:00,22.0,20.0,30.34,South,183,0.0,0.0,91,0.00,,,0.00,,2013-01-08 14:23:00,
2013-01-08 08:33:00,23.0,21.0,30.34,South,183,0.0,0.0,92,0.00,,,0.00,,2013-01-08 14:33:00,
2013-01-08 08:42:00,23.0,21.0,30.34,South,183,0.0,0.0,92,0.00,,,0.00,,2013-01-08 14:42:00,
2013-01-08 08:53:00,24.0,22.0,30.34,South,183,0.0,0.0,92,0.00,,,0.00,,2013-01-08 14:53:00,
2013-01-08 09:02:00,26.0,24.0,30.34,South,183,0.0,0.0,93,0.00,,,0.00,,2013-01-08 15:02:00,
2013-01-08 09:12:00,26.0,24.0,30.34,South,183,0.0,0.0,93,0.00,,,0.00,,2013-01-08 15:12:00,
2013-01-08 09:22:00,27.0,26.0,30.34,South,183,0.0,0.0,94,0.00,,,0.00,,2013-01-08 15:22:00,
2013-01-08 09:33:00,30.0,29.0,30.32,South,183,0.0,0.0,95,0.00,,,0.00,,2013-01-08 15:33:00,
2013-01-08 09:43:00,30.0,29.0,30.32,South,183,0.0,0.0,95,0.00,,,0.00,,2013-01-08 15:43:00,
2013-01-08 09:52:00,32.0,30.0,30.32,South,183,0.0,0.0,94,0.00,,,0.00,,2013-01-08 15:52:00,
2013-01-08 10:03:00,34.0,32.0,30.33,South,183,2.0,2.0,92,0.00,,,0.00,,2013-01-08 16:03:00,
2013-01-08 10:12:00,34.0,32.0,30.33,South,183,2.0,2.0,92,0.00,,,0.00,,2013-01-08 16:12:00,
2013-01-08 10:22:00,36.0,32.0,30.33,SSW,213,4.0,4.0,85,0.00,,,0.00,,2013-01-08 16:22:00,
2013-01-08 10:33:00,40.0,30.0,30.31,SSW,211,0.0,3.0,67,0.00,,,0.00,,2013-01-08 16:33:00,
2013-01-08 10:42:00,40.0,30.0,30.31,SSW,211,0.0,3.0,67,0.00,,,0.00,,2013-01-08 16:42:00,
2013-01-08 10:52:00,42.0,31.0,30.31,South,189,3.0,4.0,64,0.00,,,0.00,,2013-01-08 16:52:00,
2013-01-08 11:03:00,43.0,30.0,30.30,SSW,201,3.0,4.0,61,0.00,,,0.00,,2013-01-08 17:03:00,
2013-01-08 11:12:00,43.0,30.0,30.30,SSW,201,3.0,4.0,61,0.00,,,0.00,,2013-01-08 17:12:00,
2013-01-08 11:23:00,43.0,30.0,30.30,SSW,211,2.0,3.0,61,0.00,,,0.00,,2013-01-08 17:23:00,
2013-01-08 11:33:00,44.0,31.0,30.28,SE,136,1.0,3.0,59,0.00,,,0.00,,2013-01-08 17:33:00,
2013-01-08 11:43:00,44.0,31.0,30.28,SE,136,1.0,3.0,59,0.00,,,0.00,,2013-01-08 17:43:00,
2013-01-08 11:53:00,44.0,30.0,30.28,SSE,168,3.0,3.0,57,0.00,,,0.00,,2013-01-08 17:53:00,
2013-01-08 12:03:00,43.0,30.0,30.27,SSW,205,1.0,3.0,60,0.00,,,0.00,,2013-01-08 18:03:00,
2013-01-08 12:12:00,43.0,30.0,30.27,SSW,205,1.0,3.0,60,0.00,,,0.00,,2013-01-08 18:12:00,
2013-01-08 12:23:00,45.0,32.0,30.27,SW,217,2.0,3.0,59,0.00,,,0.00,,2013-01-08 18:23:00,
2013-01-08 12:33:00,46.0,31.0,30.25,SW,215,3.0,3.0,55,0.00,,,0.00,,2013-01-08 18:33:00,
2013-01-08 12:43:00,46.0,31.0,30.25,SW,215,3.0,3.0,55,0.00,,,0.00,,2013-01-08 18:43:00,
2013-01-08 12:53:00,47.0,31.0,30.25,SSW,213,0.0,0.0,54,0.00,,,0.00,,2013-01-08 18:53:00,
2013-01-08 13:03:00,48.0,32.0,30.24,SSE,154,0.0,2.0,53,0.00,,,0.00,,2013-01-08 19:03:00,
2013-01-08 13:12:00,48.0,32.0,30.24,SSE,154,0.0,2.0,53,0.00,,,0.00,,2013-01-08 19:12:00,
2013-01-08 13:22:00,47.0,30.0,30.24,South,180,2.0,3.0,52,0.00,,,0.00,,2013-01-08 19:22:00,
2013-01-08 13:32:00,48.0,31.0,30.23,SE,142,3.0,4.0,52,0.00,,,0.00,,2013-01-08 19:32:00,
2013-01-08 13:42:00,48.0,31.0,30.23,SE,142,3.0,4.0,52,0.00,,,0.00,,2013-01-08 19:42:00,
2013-01-08 13:53:00,48.0,32.0,30.23,South,176,0.0,1.0,53,0.00,,,0.00,,2013-01-08 19:53:00,
2013-01-08 14:03:00,49.0,32.0,30.23,South,170,1.0,2.0,51,0.00,,,0.00,,2013-01-08 20:03:00,
2013-01-08 14:12:00,49.0,32.0,30.23,South,170,1.0,2.0,51,0.00,,,0.00,,2013-01-08 20:12:00,
2013-01-08 14:23:00,49.0,31.0,30.23,South,182,3.0,3.0,50,0.00,,,0.00,,2013-01-08 20:23:00,
2013-01-08 14:33:00,49.0,32.0,30.23,South,186,1.0,3.0,51,0.00,,,0.00,,2013-01-08 20:33:00,
2013-01-08 14:43:00,49.0,32.0,30.23,South,186,1.0,3.0,51,0.00,,,0.00,,2013-01-08 20:43:00,
2013-01-08 14:53:00,48.0,33.0,30.23,SE,125,2.0,2.0,55,0.00,,,0.00,,2013-01-08 20:53:00,
2013-01-08 15:03:00,48.0,33.0,30.23,SSE,163,0.0,1.0,55,0.00,,,0.00,,2013-01-08 21:03:00,
2013-01-08 15:12:00,48.0,33.0,30.23,SSE,163,0.0,1.0,55,0.00,,,0.00,,2013-01-08 21:12:00,
2013-01-08 15:22:00,47.0,32.0,30.23,SSE,163,1.0,2.0,56,0.00,,,0.00,,2013-01-08 21:22:00,
2013-01-08 15:33:00,47.0,33.0,30.23,ESE,115,1.0,2.0,59,0.00,,,0.00,,2013-01-08 21:33:00,
2013-01-08 15:43:00,47.0,33.0,30.23,ESE,115,1.0,2.0,59,0.00,,,0.00,,2013-01-08 21:43:00,
2013-01-08 15:53:00,48.0,34.0,30.23,SSE,155,0.0,1.0,57,0.00,,,0.00,,2013-01-08 21:53:00,
2013-01-08 16:03:00,47.0,33.0,30.23,SSE,155,0.0,0.0,58,0.00,,,0.00,,2013-01-08 22:03:00,
2013-01-08 16:12:00,47.0,33.0,30.23,SSE,155,0.0,0.0,58,0.00,,,0.00,,2013-01-08 22:12:00,
2013-01-08 16:23:00,46.0,32.0,30.23,SSE,155,0.0,0.0,59,0.00,,,0.00,,2013-01-08 22:23:00,
2013-01-08 16:33:00,45.0,32.0,30.22,SSE,155,0.0,0.0,61,0.00,,,0.00,,2013-01-08 22:33:00,
2013-01-08 16:42:00,45.0,32.0,30.22,SSE,155,0.0,0.0,61,0.00,,,0.00,,2013-01-08 22:42:00,
2013-01-08 16:52:00,44.0,32.0,30.22,SSE,155,0.0,0.0,62,0.00,,,0.00,,2013-01-08 22:52:00,
2013-01-08 17:02:00,43.0,32.0,30.23,SSE,155,0.0,0.0,65,0.00,,,0.00,,2013-01-08 23:02:00,
2013-01-08 17:12:00,43.0,32.0,30.23,SSE,155,0.0,0.0,65,0.00,,,0.00,,2013-01-08 23:12:00,
2013-01-08 17:22:00,42.0,31.0,30.23,SSE,155,0.0,0.0,65,0.00,,,0.00,,2013-01-08 23:22:00,
2013-01-08 17:32:00,42.0,32.0,30.23,SSE,155,0.0,0.0,67,0.00,,,0.00,,2013-01-08 23:32:00,
2013-01-08 17:43:00,42.0,32.0,30.23,SSE,155,0.0,0.0,67,0.00,,,0.00,,2013-01-08 23:43:00,
2013-01-08 17:52:00,41.0,31.0,30.23,SSE,155,0.0,0.0,68,0.00,,,0.00,,2013-01-08 23:52:00,
2013-01-08 18:03:00,41.0,32.0,30.24,SSE,155,0.0,0.0,69,0.00,,,0.00,,2013-01-09 00:03:00,
2013-01-08 18:12:00,41.0,32.0,30.24,SSE,155,0.0,0.0,69,0.00,,,0.00,,2013-01-09 00:12:00,
2013-01-08 18:22:00,40.0,31.0,30.24,SSE,155,0.0,0.0,71,0.00,,,0.00,,2013-01-09 00:22:00,
2013-01-08 18:33:00,40.0,32.0,30.24,SSE,155,0.0,0.0,72,0.00,,,0.00,,2013-01-09 00:33:00,
2013-01-08 18:42:00,40.0,32.0,30.24,SSE,155,0.0,0.0,72,0.00,,,0.00,,2013-01-09 00:42:00,
2013-01-08 18:52:00,40.0,32.0,30.24,SSE,155,0.0,0.0,72,0.00,,,0.00,,2013-01-09 00:52:00,
2013-01-08 19:02:00,39.0,31.0,30.23,SSE,155,0.0,0.0,73,0.00,,,0.00,,2013-01-09 01:02:00,
2013-01-08 19:12:00,39.0,31.0,30.23,SSE,155,0.0,0.0,73,0.00,,,0.00,,2013-01-09 01:12:00,
2013-01-08 19:22:00,39.0,31.0,30.23,SSE,155,0.0,0.0,74,0.00,,,0.00,,2013-01-09 01:22:00,
2013-01-08 19:32:00,38.0,31.0,30.23,SSE,155,0.0,0.0,75,0.00,,,0.00,,2013-01-09 01:32:00,
2013-01-08 19:42:00,38.0,31.0,30.23,SSE,155,0.0,0.0,75,0.00,,,0.00,,2013-01-09 01:42:00,
2013-01-08 19:52:00,38.0,31.0,30.23,SSE,155,0.0,0.0,76,0.00,,,0.00,,2013-01-09 01:52:00,
2013-01-08 20:02:00,37.0,31.0,30.23,SSE,155,0.0,1.0,78,0.00,,,0.00,,2013-01-09 02:02:00,
2013-01-08 20:12:00,37.0,31.0,30.23,SSE,155,0.0,1.0,78,0.00,,,0.00,,2013-01-09 02:12:00,
2013-01-08 20:22:00,37.0,31.0,30.23,SSE,155,0.0,0.0,78,0.00,,,0.00,,2013-01-09 02:22:00,
2013-01-08 20:33:00,37.0,31.0,30.23,SSE,155,0.0,0.0,79,0.00,,,0.00,,2013-01-09 02:33:00,
2013-01-08 20:42:00,37.0,31.0,30.23,SSE,155,0.0,0.0,79,0.00,,,0.00,,2013-01-09 02:42:00,
2013-01-08 20:52:00,37.0,31.0,30.23,SSE,155,0.0,0.0,80,0.00,,,0.00,,2013-01-09 02:52:00,
2013-01-08 21:03:00,37.0,32.0,30.22,SSE,155,0.0,0.0,81,0.00,,,0.00,,2013-01-09 03:03:00,
2013-01-08 21:12:00,37.0,32.0,30.22,SSE,155,0.0,0.0,81,0.00,,,0.00,,2013-01-09 03:12:00,
2013-01-08 21:22:00,37.0,32.0,30.22,SSE,155,0.0,0.0,81,0.00,,,0.00,,2013-01-09 03:22:00,
2013-01-08 21:33:00,37.0,32.0,30.23,SSE,155,0.0,0.0,82,0.00,,,0.00,,2013-01-09 03:33:00,
2013-01-08 21:42:00,37.0,32.0,30.23,SSE,155,0.0,0.0,82,0.00,,,0.00,,2013-01-09 03:42:00,
2013-01-08 21:52:00,37.0,32.0,30.23,SSE,155,0.0,1.0,82,0.00,,,0.00,,2013-01-09 03:52:00,
2013-01-08 22:02:00,38.0,33.0,30.22,SSE,155,2.0,2.0,82,0.00,,,0.00,,2013-01-09 04:02:00,
2013-01-08 22:12:00,38.0,33.0,30.22,SSE,155,2.0,2.0,82,0.00,,,0.00,,2013-01-09 04:12:00,
2013-01-08 22:22:00,38.0,33.0,30.22,SSE,155,0.0,0.0,81,0.00,,,0.00,,2013-01-09 04:22:00,
2013-01-08 22:32:00,38.0,32.0,30.21,SSE,155,0.0,0.0,80,0.00,,,0.00,,2013-01-09 04:32:00,
2013-01-08 22:42:00,38.0,32.0,30.21,SSE,155,0.0,0.0,80,0.00,,,0.00,,2013-01-09 04:42:00,
2013-01-08 22:52:00,38.0,32.0,30.21,SSE,155,0.0,0.0,80,0.00,,,0.00,,2013-01-09 04:52:00,
2013-01-08 23:03:00,39.0,33.0,30.20,SSE,155,0.0,0.0,79,0.00,,,0.00,,2013-01-09 05:03:00,
2013-01-08 23:12:00,39.0,33.0,30.20,SSE,155,0.0,0.0,79,0.00,,,0.00,,2013-01-09 05:12:00,
2013-01-08 23:22:00,39.0,33.0,30.20,SSE,155,0.0,0.0,79,0.00,,,0.00,,2013-01-09 05:22:00,
2013-01-08 23:33:00,38.0,32.0,30.20,SSE,155,0.0,0.0,79,0.00,,,0.00,,2013-01-09 05:33:00,
2013-01-08 23:42:00,38.0,32.0,30.20,SSE,155,0.0,0.0,79,0.00,,,0.00,,2013-01-09 05:42:00,
2013-01-08 23:52:00,38.0,32.0,30.20,SSE,155,0.0,0.0,79,0.00,,,0.00,,2013-01-09 05:52:00,